FAD3054 MDSI-MDSI

Flight info

Callsign FAD3054
Flight time 0h 0m
Altitude 450
Route VFR
Aircraft B06/L-SFG/C

Departure

Time 2026-05-06 21:04
Airport San Isidro Air Base (MDSI)

Arrival

Time 2026-05-06 21:04
Airport San Isidro Air Base (MDSI)
Time Latitude Longitude Altitude Speed Heading
2026-05-06 20:55 18.50232 -69.76813 117 ft 0 kts 232°
2026-05-06 20:57 18.50246 -69.76802 129 ft 18 kts 40°
2026-05-06 20:58 18.50454 -69.76689 223 ft 63 kts
2026-05-06 20:58 18.51036 -69.76693 247 ft 92 kts 350°
2026-05-06 20:58 18.51561 -69.77083 210 ft 98 kts 297°
2026-05-06 20:58 18.51956 -69.77651 262 ft 96 kts 303°
2026-05-06 20:59 18.52544 -69.78020 303 ft 103 kts 338°
2026-05-06 20:59 18.53063 -69.78521 308 ft 110 kts 295°
2026-05-06 20:59 18.53475 -69.79015 574 ft 74 kts 323°
2026-05-06 20:59 18.53795 -69.79261 398 ft 43 kts 311°
2026-05-06 21:00 18.54143 -69.79578 350 ft 84 kts 313°
2026-05-06 21:00 18.54568 -69.80042 378 ft 93 kts 306°
2026-05-06 21:00 18.54855 -69.80682 369 ft 101 kts 281°
2026-05-06 21:00 18.54946 -69.81444 362 ft 110 kts 259°
2026-05-06 21:01 18.54793 -69.82247 359 ft 114 kts 253°
2026-05-06 21:01 18.54635 -69.83090 361 ft 120 kts 257°
2026-05-06 21:01 18.54495 -69.83956 364 ft 122 kts 258°
2026-05-06 21:01 18.54350 -69.84846 354 ft 123 kts 258°
2026-05-06 21:02 18.54139 -69.85693 369 ft 122 kts 247°
2026-05-06 21:02 18.53827 -69.86555 364 ft 128 kts 245°
2026-05-06 21:02 18.53506 -69.87446 368 ft 133 kts 244°
2026-05-06 21:02 18.53174 -69.88373 364 ft 136 kts 244°
2026-05-06 21:03 18.52826 -69.89293 360 ft 134 kts 244°
2026-05-06 21:03 18.52465 -69.90197 364 ft 133 kts 240°
2026-05-06 21:03 18.51985 -69.91013 367 ft 131 kts 230°
2026-05-06 21:03 18.51449 -69.91799 366 ft 133 kts 232°
2026-05-06 21:04 18.50945 -69.92617 369 ft 134 kts 232°
2026-05-06 21:04 18.50619 -69.93370 734 ft 92 kts 228°
2026-05-06 21:04 18.50368 -69.93472 458 ft 21 kts 98°
2026-05-06 21:04 18.50218 -69.93263 343 ft 53 kts 130°
2026-05-06 21:05 18.49836 -69.93052 408 ft 63 kts 163°
2026-05-06 21:05 18.49471 -69.93144 493 ft 60 kts 237°
2026-05-06 21:05 18.49599 -69.93537 486 ft 66 kts 311°
2026-05-06 21:05 18.50036 -69.93709 477 ft 74 kts 12°
2026-05-06 21:06 18.50335 -69.93335 486 ft 73 kts 88°
2026-05-06 21:06 18.50023 -69.92881 491 ft 90 kts 157°
2026-05-06 21:06 18.49421 -69.92996 477 ft 91 kts 216°
2026-05-06 21:06 18.49249 -69.93624 489 ft 99 kts 279°
2026-05-06 21:07 18.49700 -69.94150 484 ft 100 kts 340°
2026-05-06 21:07 18.50374 -69.94031 485 ft 101 kts 41°
2026-05-06 21:07 18.50616 -69.93420 488 ft 92 kts 100°
2026-05-06 21:07 18.50227 -69.92928 488 ft 91 kts 160°
2026-05-06 21:08 18.49629 -69.93039 585 ft 73 kts 214°
2026-05-06 21:08 18.49651 -69.93292 704 ft 15 kts 343°
2026-05-06 21:08 18.49796 -69.93197 435 ft 55 kts 24°
2026-05-06 21:08 18.50193 -69.93360 370 ft 82 kts 281°
2026-05-06 21:09 18.50612 -69.93719 314 ft 86 kts 37°
2026-05-06 21:09 18.50718 -69.93181 411 ft 79 kts 118°
2026-05-06 21:09 18.50132 -69.93257 179 ft 102 kts 195°
2026-05-06 21:09 18.49575 -69.93350 267 ft 82 kts 244°
2026-05-06 21:10 18.49953 -69.93745 374 ft 84 kts 17°
2026-05-06 21:10 18.50084 -69.93275 246 ft 86 kts 141°
2026-05-06 21:10 18.49717 -69.92935 388 ft 79 kts 98°
2026-05-06 21:10 18.50128 -69.92690 474 ft 87 kts 345°
2026-05-06 21:11 18.50725 -69.93012 326 ft 91 kts 281°
2026-05-06 21:11 18.50572 -69.93502 255 ft 62 kts 194°
2026-05-06 21:11 18.50313 -69.93380 396 ft 41 kts 118°
2026-05-06 21:11 18.50028 -69.93060 219 ft 71 kts 156°
2026-05-06 21:12 18.49765 -69.93087 427 ft 19 kts 179°
2026-05-06 21:12 18.49770 -69.93194 287 ft 23 kts 190°
2026-05-06 21:12 18.49977 -69.93285 396 ft 24 kts 61°
2026-05-06 21:12 18.50061 -69.93293 313 ft 13 kts
2026-05-06 21:13 18.50092 -69.93300 364 ft 38 kts 196°
2026-05-06 21:13 18.49645 -69.93548 435 ft 80 kts 196°
2026-05-06 21:13 18.49223 -69.93774 722 ft 56 kts 188°
2026-05-06 21:13 18.48750 -69.93992 463 ft 80 kts 204°
2026-05-06 21:14 18.48255 -69.94275 490 ft 80 kts 210°
2026-05-06 21:14 18.47929 -69.94727 397 ft 68 kts 252°
2026-05-06 21:14 18.47967 -69.95306 416 ft 88 kts 284°
2026-05-06 21:14 18.48220 -69.95952 437 ft 106 kts 296°
2026-05-06 21:15 18.48634 -69.96651 421 ft 116 kts 301°
2026-05-06 21:15 18.49212 -69.97287 425 ft 129 kts 320°
2026-05-06 21:15 18.50016 -69.97751 413 ft 136 kts 349°
2026-05-06 21:15 18.50914 -69.97562 417 ft 136 kts 28°
2026-05-06 21:16 18.51722 -69.97055 412 ft 132 kts 37°
2026-05-06 21:16 18.52477 -69.96504 415 ft 131 kts 39°
2026-05-06 21:16 18.53256 -69.95980 421 ft 137 kts 30°
2026-05-06 21:16 18.54231 -69.95798 417 ft 145 kts
2026-05-06 21:17 18.55233 -69.95877 421 ft 146 kts 353°
2026-05-06 21:17 18.56227 -69.96106 418 ft 146 kts 348°
2026-05-06 21:17 18.57221 -69.96284 395 ft 144 kts
2026-05-06 21:17 18.58142 -69.96169 313 ft 119 kts
2026-05-06 21:18 18.58791 -69.96531 344 ft 105 kts 293°
2026-05-06 21:18 18.58700 -69.97198 262 ft 91 kts 224°
2026-05-06 21:18 18.58363 -69.97752 205 ft 89 kts 229°
2026-05-06 21:18 18.57817 -69.97868 158 ft 89 kts 160°
2026-05-06 21:19 18.57460 -69.97960 525 ft 44 kts 286°
2026-05-06 21:19 18.57764 -69.97950 234 ft 29 kts 20°
2026-05-06 21:19 18.57894 -69.97921 100 ft 9 kts
2026-05-06 21:19 18.57902 -69.97927 107 ft 9 kts 32°
2026-05-06 21:20 18.57916 -69.97916 97 ft 0 kts 28°